Location: Mount Wilson Observatory
(34.2257°N, 118.0571°W)
Time: 06:53:11
(UTC-07:00)

ATLAS 3B CENTAUR R/B - Visible Passes

Search period start: 01 August 2014 00:00
Search period end: 11 August 2014 00:00
Orbit: 229 x 8551 km, 28.2° (Epoch: 01 August)

Date Brightness Start Highest point End Pass type
(mag) Time Alt. Az. Time Alt. Az. Time Alt. Az.
02 Aug 6.3 04:47:39 10° SSE 05:01:30 17° ESE 05:26:03 10° E visible
03 Aug 6.2 05:27:22 10° S 05:45:35 29° ESE 06:26:26 10° E visible
06 Aug 6.1 04:26:58 10° SSE 04:38:56 18° ESE 05:01:30 10° E visible
07 Aug 5.9 05:06:30 10° S 05:21:50 30° SE 05:59:20 10° ENE visible
10 Aug 5.8 04:03:42 10° SSE 04:13:35 18° ESE 04:32:24 10° E visible
